User: anonymous   Login
Location: Iola
(37.9240°N, 95.4000°W)
Time: 23:21:15
(UTC-05:00)
Language:

Meteor 2-10 Rocket - Orbit

View from above orbital plane
View from above orbital plane
View from above satellite
View from above satellite

Ground track
Ground track

The orbit data is extracted from the following two-line orbital elements,

1 14453U 83109B   17295.71640753  .00000040  00000-0  10665-4 0  9991
2 14453  81.1670 338.0132 0105887  55.1438 305.9641 14.24682428765688
Epoch (UTC): 22 October 2017 17:11:37
Eccentricity: 0.0105887
inclination: 81.1670°
perigee height: 733 km
apogee height: 885 km
right ascension of ascending node: 338.0132°
argument of perigee: 55.1438°
revolutions per day: 14.24682428
mean anomaly at epoch: 305.9641°
orbit number at epoch: 76568

The dashed part of the orbit path shows where the satellite is in the earth's shadow,  

DLR